Find Starlink 34711

NORAD ID: 64912 Int'l Des: 2025-157 Owner: SPXS Country: US Constellation: starlink operational
LEOCIRCULAR

現在のビュー

3D地球を読み込み中...

Starlink 34711について

説明を読み込み中...

次回通過

Passes for default location (London). Set your location on the main map for personalized predictions.

高度履歴

Loading altitude history...

軌道要素

1 64912U 25157J 26150.16668980 .00003359 00000-0 11055-3 0 9995
2 64912 53.1590 327.3096 0002417 33.3555 87.4058 15.34387903 5814
Epoch: May 30, 2026 • Age: 9 hours

現在のステータス

高度 469.5 km
速度 7.63 km/s
衛星直下点 -25.49°S, 133.98°W
打ち上げ日 Jul 26, 2025
運用期間 0.8 years
タイプ internet

技術仕様

分類 Payload
質量 575.00 kg
乾燥質量 530.00 kg
総質量 575.00 kg
長さ 0.30 m
直径 4.10 m
スパン 29.00 m
形状 Box + pan
製造者 SPXS
バスタイプ Starlink V2MO
フェーズステータス In Orbit
所有者/国 SPXS/US

Most Searched